Location: ???????
(55.4362°N, 38.1183°E)
Time: 16:49:09
(UTC+00:00)

Cosmos 2058 - Pass Details

Date: 17 June 2021
Orbit: 563 x 582 km, 82.5° (Epoch: 29 July)

Event Time Altitude Azimuth Distance (km) Brightness Sun altitude
Exits shadow 22:42:41 11° 172° (S) 1,825 4.9 -9.6°
Maximum altitude 22:46:34 52° 96° (E) 707 3.4 -9.4°
Drops below altitude 10° 22:50:35 10° 20° (NNE) 1,872 7.2 -9.2°
Sets 22:52:48 0° 16° (NNE) 2,776 8.8 -9.1°
